Flag for Portugal Weather past 2 weeks in Ponta Delgada, Azores, Portugal

Now
63 °F

Passing clouds.


Feels Like: 63 °F
Forecast: 64 / 69 °F
Wind: 3 mph from Northwest

Location: Ponta Delgada / Nordela Acores

Current Time: Jun 2, 2015 at 1:54:14 AM

Latest Report: Jun 2, 2015 at 1:00 AM


Visibility: N/A

Pressure: 30.27 "Hg

Humidity: 83%

Dew point: 57 °F

Location of Ponta DelgadaLocation

Historic Weather in Ponta Delgada — Graph

°F

Ponta Delgada temperature yesterday

Maximum temperature yesterday: 70 °F (at 5:00 PM)
Minimum temperature yesterday: 61 °F (at 3:30 AM)
Average temperature yesterday: 65 °F

Past Weeks' High & Low Weather Summary

 TemperatureHumidityPressure
High70 °F (Jun 1, 5:00 PM)94% (May 18, 4:00 AM)30.57 "Hg (May 18, 4:00 AM)
Low57 °F (May 31, 12:30 AM)60% (May 26, 12:00 PM)30.27 "Hg (May 27, 6:30 PM)
Average63 °F80%30.38 "Hg
* Reported Midnight between May 17 and May 18 — Jun 2 12:30 AM, Ponta Delgada, Weather by CustomWeather, © 2015

Note: Actual official high and low records may vary slightly from our data, if they occured in-between our weather recording intervals... More about our weather records

Advertising

Ponta Delgada weather history for previous 24 hours

 ConditionsComfort  
Time TempWeatherWind HumidityBarometerVisibility
12:30 AM
Tue, Jun 2
63 °FPassing clouds.3 mph83%30.27 "HgN/A
12:00 AM63 °FPassing clouds.3 mph83%30.27 "HgN/A
11:30 PM
Mon, Jun 1
64 °FPassing clouds.8 mph83%30.30 "HgN/A
11:00 PM64 °FPassing clouds.7 mph83%30.30 "HgN/A
10:30 PM64 °FPassing clouds.7 mph83%30.30 "HgN/A
10:00 PM64 °FPassing clouds.7 mph88%30.27 "HgN/A
9:30 PM64 °FPassing clouds.10 mph88%30.27 "HgN/A
9:00 PM64 °FPassing clouds.10 mph94%30.27 "HgN/A
8:30 PM66 °FPassing clouds.13 mph88%30.27 "HgN/A
8:00 PM66 °FPassing clouds.14 mph88%30.27 "HgN/A
7:30 PM66 °FPassing clouds.15 mph88%30.27 "HgN/A
7:00 PM68 °FPassing clouds.15 mph83%30.27 "HgN/A
6:30 PM68 °FPassing clouds.17 mph83%30.27 "HgN/A
6:00 PM68 °FPassing clouds.17 mph83%30.27 "HgN/A
5:30 PM68 °FPassing clouds.15 mph83%30.30 "HgN/A
5:00 PM70 °FScattered clouds.15 mph78%30.30 "HgN/A
4:30 PM68 °FScattered clouds.15 mph83%30.30 "HgN/A
4:00 PM68 °FScattered clouds.15 mph83%30.30 "HgN/A
3:30 PM68 °FScattered clouds.14 mph83%30.30 "HgN/A
3:00 PM68 °FScattered clouds.15 mph83%30.30 "HgN/A
2:30 PM68 °FPassing clouds.15 mph83%30.30 "HgN/A
2:00 PM68 °FPassing clouds.15 mph78%30.33 "HgN/A
1:30 PM68 °FPassing clouds.15 mph83%30.33 "HgN/A
1:00 PM68 °FPassing clouds.14 mph83%30.33 "HgN/A
12:30 PM68 °FPassing clouds.14 mph83%30.33 "HgN/A
12:00 PM66 °FPassing clouds.13 mph88%30.33 "HgN/A
11:30 AM66 °FPassing clouds.12 mph88%30.33 "HgN/A
11:00 AM66 °FPassing clouds.12 mph88%30.33 "HgN/A
10:30 AM66 °FPassing clouds.12 mph88%30.33 "HgN/A
10:00 AM64 °FPassing clouds.10 mph88%30.33 "HgN/A
9:30 AM64 °FPassing clouds.12 mph88%30.33 "HgN/A
9:00 AM64 °FPassing clouds.12 mph88%30.36 "HgN/A
8:30 AM64 °FPassing clouds.10 mph88%30.33 "HgN/A
8:00 AM64 °FPassing clouds.7 mph88%30.33 "HgN/A
7:30 AM63 °FPassing clouds.3 mph88%30.33 "HgN/A
7:00 AM61 °FPassing clouds.7 mph88%30.33 "HgN/A
6:30 AM61 °FPassing clouds.5 mph88%30.33 "HgN/A
6:00 AM63 °FPassing clouds.3 mph83%30.33 "HgN/A
5:30 AM61 °FPassing clouds.5 mph83%30.33 "HgN/A
5:00 AM63 °FPassing clouds.6 mph88%30.33 "HgN/A
4:30 AM63 °FPassing clouds.3 mph94%30.33 "HgN/A
4:00 AM61 °FPassing clouds.3 mph88%30.33 "HgN/A
3:30 AM61 °FPassing clouds.6 mph88%30.36 "HgN/A
3:00 AM63 °FPassing clouds.5 mph88%30.36 "HgN/A
2:30 AM63 °FPassing clouds.7 mph88%30.36 "HgN/A
2:00 AM63 °FPassing clouds.5 mph88%30.36 "HgN/A
1:30 AM63 °FPassing clouds.5 mph88%30.36 "HgN/A
1:00 AM63 °FPassing clouds.6 mph88%30.39 "HgN/A
Weather by CustomWeather, © 2015

See weather overviewHow to use our weather pages